When you browse on this site, cookies collect data to enhance your experience and personalize the content and advertising you see.
Visit our Privacy Policy to learn more. By continuing to use the site, you agree to this use of cookies and data.
  • In United Kingdom
  • List of Countries
  • For 7 days
  • Water Temperature
  • Weather Map
  • Weather Widgets
  • user-avatar
    Login

    Hourly Weather Ali Bayramli

    Today, 29 January, Wednesday

    Time Temperature Precipitation Wind Pressure Humidity
    00:00 +4°C° 0 mm 0 mps 761 mmHg 70%
    01:00 +4°C° 0 mm 0 mps 760 mmHg 71%
    02:00 +4°C° 0 mm 0 mps 760 mmHg 73%
    03:00 +3°C° 0 mm 0 mps 759 mmHg 75%
    04:00 +3°C° 0 mm 0 mps 759 mmHg 73%
    05:00 +4°C° 0 mm 1 mps 759 mmHg 72%
    06:00 +4°C° 0 mm 1 mps 759 mmHg 71%
    07:00 +5°C° 0 mm 1 mps 759 mmHg 64%
    08:00 +7°C° 0 mm 1 mps 759 mmHg 57%
    09:00 +7°C° 0 mm 2 mps 759 mmHg 50%
    10:00 +8°C° 0 mm 2 mps 758 mmHg 47%
    11:00 +9°C° 0 mm 2 mps 758 mmHg 44%
    12:00 +10°C° 0 mm 3 mps 757 mmHg 40%
    13:00 +10°C° 0 mm 3 mps 757 mmHg 39%
    14:00 +11°C° 0 mm 3 mps 757 mmHg 38%
    15:00 +11°C° 0 mm 3 mps 756 mmHg 37%
    16:00 +10°C° 0 mm 3 mps 757 mmHg 41%
    17:00 +9°C° 0 mm 2 mps 757 mmHg 44%
    18:00 +9°C° 0 mm 2 mps 757 mmHg 47%
    19:00 +8°C° 0 mm 2 mps 757 mmHg 49%
    20:00 +8°C° 0 mm 2 mps 757 mmHg 51%
    21:00 +8°C° 0 mm 2 mps 757 mmHg 53%
    22:00 +8°C° 0 mm 1 mps 758 mmHg 55%
    23:00 +7°C° 0 mm 1 mps 758 mmHg 57%

    Tomorrow, 30 January, Thursday

    Time Temperature Precipitation Wind Pressure Humidity
    00:00 +6°C° 0 mm 0 mps 758 mmHg 59%
    01:00 +6°C° 0 mm 0 mps 758 mmHg 60%
    02:00 +5°C° 0 mm 0 mps 758 mmHg 60%
    03:00 +5°C° 0 mm 0 mps 757 mmHg 60%
    04:00 +6°C° 0 mm 1 mps 758 mmHg 59%
    05:00 +5°C° 0 mm 2 mps 758 mmHg 58%
    06:00 +5°C° 0 mm 2 mps 758 mmHg 57%
    07:00 +5°C° 0 mm 3 mps 758 mmHg 53%
    08:00 +6°C° 0 mm 4 mps 758 mmHg 50%
    09:00 +7°C° 0 mm 4 mps 759 mmHg 47%
    10:00 +9°C° 0 mm 5 mps 758 mmHg 43%
    11:00 +10°C° 0 mm 5 mps 758 mmHg 39%
    12:00 +13°C° 0 mm 6 mps 757 mmHg 34%
    13:00 +13°C° 0 mm 5 mps 757 mmHg 33%
    14:00 +14°C° 0 mm 5 mps 757 mmHg 31%
    15:00 +15°C° 0 mm 5 mps 756 mmHg 29%
    16:00 +13°C° 0 mm 4 mps 756 mmHg 33%
    17:00 +12°C° 0 mm 4 mps 756 mmHg 36%
    18:00 +11°C° 0 mm 3 mps 756 mmHg 40%
    19:00 +10°C° 0 mm 3 mps 756 mmHg 46%
    20:00 +9°C° 0 mm 3 mps 756 mmHg 51%
    21:00 +9°C° 0 mm 3 mps 756 mmHg 57%
    22:00 +8°C° 0 mm 3 mps 756 mmHg 57%
    23:00 +8°C° 0 mm 3 mps 755 mmHg 58%

    Day after tomorrow, 31 January, Friday

    Time Temperature Precipitation Wind Pressure Humidity
    00:00 +8°C° 0 mm 3 mps 755 mmHg 58%
    01:00 +7°C° 0 mm 3 mps 755 mmHg 57%
    02:00 +7°C° 0 mm 3 mps 754 mmHg 56%
    03:00 +6°C° 0 mm 4 mps 754 mmHg 54%
    04:00 +5°C° 0 mm 4 mps 754 mmHg 55%
    05:00 +5°C° 0 mm 4 mps 753 mmHg 55%
    06:00 +5°C° 0 mm 4 mps 753 mmHg 56%
    07:00 +6°C° 0 mm 4 mps 753 mmHg 53%
    08:00 +8°C° 0 mm 3 mps 753 mmHg 51%
    09:00 +8°C° 0 mm 3 mps 753 mmHg 48%
    10:00 +10°C° 0 mm 3 mps 753 mmHg 44%
    11:00 +11°C° 0 mm 3 mps 752 mmHg 40%
    12:00 +13°C° 0 mm 4 mps 752 mmHg 36%
    13:00 +14°C° 0 mm 4 mps 752 mmHg 34%
    14:00 +14°C° 0 mm 4 mps 752 mmHg 33%
    15:00 +15°C° 0 mm 4 mps 751 mmHg 32%
    16:00 +13°C° 0 mm 3 mps 752 mmHg 37%
    17:00 +12°C° 0 mm 2 mps 752 mmHg 42%
    18:00 +11°C° 0 mm 1 mps 752 mmHg 47%
    19:00 +9°C° 0 mm 3 mps 752 mmHg 55%
    20:00 +8°C° 0 mm 4 mps 753 mmHg 63%
    21:00 +7°C° 0 mm 6 mps 753 mmHg 71%
    22:00 +7°C° 0 mm 6 mps 753 mmHg 72%
    23:00 +7°C° 0 mm 5 mps 753 mmHg 73%

    1 February, Saturday

    Time Temperature Precipitation Wind Pressure Humidity
    00:00 +6°C° 0 mm 5 mps 754 mmHg 73%
    01:00 +6°C° 0 mm 5 mps 754 mmHg 74%
    02:00 +6°C° 0 mm 4 mps 754 mmHg 75%
    03:00 +5°C° 0 mm 4 mps 754 mmHg 76%
    04:00 +5°C° 0.1 mm 4 mps 754 mmHg 76%
    05:00 +5°C° 0.1 mm 4 mps 755 mmHg 75%
    06:00 +5°C° 0.1 mm 4 mps 755 mmHg 75%
    07:00 +5°C° 0.3 mm 3 mps 755 mmHg 75%
    08:00 +5°C° 0.3 mm 3 mps 756 mmHg 76%
    09:00 +6°C° 0.3 mm 2 mps 756 mmHg 76%
    10:00 +5°C° 0.3 mm 3 mps 756 mmHg 77%
    11:00 +5°C° 0.3 mm 3 mps 756 mmHg 77%
    12:00 +5°C° 0.3 mm 4 mps 757 mmHg 78%
    13:00 +7°C° 0 mm 3 mps 757 mmHg 73%
    14:00 +7°C° 0 mm 3 mps 757 mmHg 68%
    15:00 +8°C° 0 mm 2 mps 757 mmHg 63%
    16:00 +7°C° 0 mm 2 mps 758 mmHg 68%
    17:00 +7°C° 0 mm 2 mps 758 mmHg 72%
    18:00 +6°C° 0 mm 2 mps 758 mmHg 77%
    19:00 +6°C° 0 mm 2 mps 759 mmHg 79%
    20:00 +6°C° 0 mm 2 mps 759 mmHg 81%
    21:00 +5°C° 0 mm 2 mps 760 mmHg 83%
    22:00 +5°C° 0 mm 2 mps 760 mmHg 84%
    23:00 +6°C° 0 mm 1 mps 760 mmHg 85%

    2 February, Sunday

    Time Temperature Precipitation Wind Pressure Humidity
    00:00 +6°C° 0 mm 1 mps 760 mmHg 86%
    01:00 +5°C° 0 mm 1 mps 760 mmHg 87%
    02:00 +5°C° 0 mm 1 mps 760 mmHg 88%
    03:00 +5°C° 0 mm 1 mps 760 mmHg 89%
    04:00 +4°C° 0 mm 1 mps 760 mmHg 89%
    05:00 +4°C° 0 mm 1 mps 761 mmHg 90%
    06:00 +4°C° 0 mm 1 mps 761 mmHg 90%
    07:00 +5°C° 0 mm 1 mps 761 mmHg 86%
    08:00 +4°C° 0 mm 2 mps 762 mmHg 81%
    09:00 +5°C° 0 mm 2 mps 762 mmHg 76%
    10:00 +6°C° 0 mm 2 mps 762 mmHg 70%
    11:00 +7°C° 0 mm 2 mps 762 mmHg 63%
    12:00 +8°C° 0 mm 2 mps 762 mmHg 57%
    13:00 +9°C° 0 mm 2 mps 762 mmHg 53%
    14:00 +10°C° 0 mm 1 mps 762 mmHg 50%
    15:00 +11°C° 0 mm 1 mps 763 mmHg 46%
    16:00 +10°C° 0 mm 1 mps 763 mmHg 52%
    17:00 +8°C° 0 mm 2 mps 763 mmHg 58%
    18:00 +7°C° 0 mm 2 mps 764 mmHg 64%
    19:00 +6°C° 0 mm 2 mps 764 mmHg 68%
    20:00 +6°C° 0 mm 2 mps 764 mmHg 72%
    21:00 +6°C° 0 mm 2 mps 764 mmHg 76%
    22:00 +5°C° 0 mm 2 mps 764 mmHg 77%
    23:00 +5°C° 0 mm 2 mps 764 mmHg 79%

    3 February, Monday

    Time Temperature Precipitation Wind Pressure Humidity
    00:00 +6°C° 0 mm 1 mps 764 mmHg 80%
    01:00 +5°C° 0 mm 1 mps 764 mmHg 81%
    02:00 +5°C° 0 mm 1 mps 763 mmHg 81%
    03:00 +5°C° 0 mm 1 mps 763 mmHg 81%
    04:00 +4°C° 0 mm 1 mps 763 mmHg 79%
    05:00 +4°C° 0 mm 1 mps 763 mmHg 76%
    06:00 +3°C° 0 mm 2 mps 763 mmHg 74%
    07:00 +4°C° 0 mm 2 mps 763 mmHg 68%
    08:00 +4°C° 0 mm 3 mps 763 mmHg 62%
    09:00 +5°C° 0 mm 3 mps 763 mmHg 56%
    10:00 +7°C° 0 mm 3 mps 762 mmHg 52%
    11:00 +7°C° 0 mm 4 mps 761 mmHg 47%
    12:00 +10°C° 0 mm 4 mps 761 mmHg 43%
    13:00 +10°C° 0 mm 4 mps 760 mmHg 41%
    14:00 +11°C° 0 mm 4 mps 760 mmHg 38%
    15:00 +12°C° 0 mm 5 mps 759 mmHg 36%
    16:00 +11°C° 0 mm 4 mps 759 mmHg 39%
    17:00 +10°C° 0 mm 4 mps 758 mmHg 43%
    18:00 +9°C° 0 mm 3 mps 758 mmHg 46%
    19:00 +8°C° 0 mm 3 mps 758 mmHg 50%
    20:00 +6°C° 0 mm 4 mps 758 mmHg 54%
    21:00 +6°C° 0 mm 4 mps 758 mmHg 58%
    22:00 +5°C° 0 mm 3 mps 757 mmHg 60%
    23:00 +5°C° 0 mm 3 mps 757 mmHg 63%
    Show more